Search your local weather  

 

Hazardous Weather Conditions

No active alerts for SAN ANTONIO, TEXAS

Current Conditions: SAN ANTONIO, TEXAS

Sky Obscured with Haze


73.0 F

Last Updated on Mar 31 2020, 8:55 pm CDT
Humidity: 36%
Wind Speed: E 3.5 mph
Barometer 30.01 in
Dewpoint: 44.2 F
Visibility: 1.75 mi
Precip: --
Heat Index: NA
Wind Chill: NA
Current conditions at:

Castroville Municipal Airport, TX (KCVB)

Lat: 29.34192 Lon: -98.8509

Local Radar Image active severe weather and emergency alerts image image weather storm and storm spotter reports image weather observation monitoring service image
Local
Radar
Active
Alerts
Storm Reports Weather
Monitoring

5 Day Forecast for SAN ANTONIO, TEXAS (78201)

Tuesday

Mostly Sunny

High 79 °F
Tuesday
Night
Mostly Cloudy

Low 53 °F
Wednesday

Mostly Cloudy

High 78 °F
Wednesday
Night
Overcast

Low 61 °F
Thursday

Chance of T-storms

High 74 °F
Thursday
Night
Isolated T-storm

Low 68 °F
Friday

T-storms


High 80 °F
Friday
Night
T-storms


Low 66 °F
Saturday

T-storms


High 74 °F

Sign-up For Email & Text Message Weather Alert Notification Services


Advertise Here

Observation History for SAN ANTONIO, TEXAS


Time Wind
(mph)
Vis
(mi)
Weather Precip (in) Temperature (F) Relative
Humidity
Wind
Chill
(F)
Heat
Index
(F)
Pressure
Air Dwpt altimeter
(in)
sea level
(mb)
8:55 pm CDT E 3.5 1.75 Sky Obscured with Haze -- 73.0 44.2 36% NA NA 30.01 M
8:35 pm CDT E 4.6 5.00 Fair with Haze -- 73.0 43.7 35% NA NA 30.01 M
7:55 pm CDT NE 5.8 7.00 Fair -- 75.0 42.8 31% NA NA 30.00 M
6:35 pm CDT NE 8.1 7.00 Fair -- 82.0 42.3 25% NA 80 29.99 M
5:55 pm CDT NE 9.2 7.00 Fair -- 82.0 42.8 25% NA 80 29.99 M
4:55 pm CDT NE 6.9 G 16.1 10.00 Fair -- 83.0 43.2 24% NA 81 29.99 M
4:35 pm CDT N 5.8 7.00 Fair -- 82.0 43.7 26% NA 80 29.99 M
3:55 pm CDT N 10.4 7.00 Fair -- 83.0 45.3 26% NA 81 30.01 M
2:55 pm CDT N 8.1 G 18.4 7.00 Fair -- 82.0 44.8 27% NA 80 30.03 M
2:35 pm CDT N 9.2 7.00 Fair -- 82.0 45.0 28% NA 80 30.04 M
1:55 pm CDT NE 9.2 7.00 Fair -- 80.0 48.2 33% NA 79 30.05 M
12:55 pm CDT N 8.1 7.00 Fair -- 78.0 48.4 35% NA NA 30.08 M
12:30 pm CDT NE 6.9 7.00 Fair -- 77.0 48.9 38% NA NA 30.09 M
11:50 am CDT N 6.9 7.00 Fair -- 75.0 51.1 43% NA NA 30.10 M
10:55 am CDT NE 9.2 10.00 Fair -- 72.0 48.2 43% NA NA 30.10 M
9:55 am CDT N 3.5 7.00 Fair -- 68.0 45.7 44% NA NA 30.09 M
8:55 am CDT NW 6.9 7.00 Fair -- 62.0 50.4 65% 62 NA 30.05 M
7:55 am CDT N 3.5 5.00 Fog/Mist -- 55.0 55.4 100% NA NA 30.01 M
6:55 am CDT NW 3.5 7.00 Fair -- 55.0 54.5 100% NA NA 29.98 M
5:55 am CDT NW 3.5 4.00 Fog/Mist -- 56.0 56.3 100% NA NA 29.97 M
4:55 am CDT N 0.0 0.50 Fog -- 57.0 57.2 100% NA NA 29.96 M
4:35 am CDT N 0.0 0.25 Heavy Rain -- 59.0 58.8 100% NA NA 29.95 M
3:55 am CDT N 0.0 0.25 Light Rain -- 60.0 60.4 100% NA NA 29.96 M
2:55 am CDT N 0.0 1.00 Fog/Mist -- 61.0 61.3 100% NA NA 29.95 M

Regional Weather Observation

San Antonio, San Antonio International Airport, TX (KSAT)

Mostly Cloudy
68.0 F

San Antonio - Kelly Field, TX (KSKF)

Fair
70.0 F

San Antonio, Stinson Municipal Airport, TX (KSSF)

Fair
68.0 F

Randolph Air Force Base, TX (KRND)

Fair
64.0 F

New Braunfels Regional Airport, TX (KBAZ)

Fair
63.0 F

Kerrville, Kerrville Municipal Airport/Louis Schreiner Field, TX (KERV)

Fair
64.0 F

Advertise Here

Advertise Here